Location: Observatory
(52.1446°N, 0.4624°W)
Time: 06:25:03
(UTC+00:00)

ISS - Pass Details

Date: 13 December 2017
Orbit: 403 x 407 km, 51.6° (Epoch: 12 December)

Event Time Altitude Azimuth Distance (km) Brightness Sun altitude
Rises 16:59:42 0° 281° (W) 2,333 1.0 -10.0°
Reaches altitude 10° 17:01:50 10° 276° (W) 1,470 0.0 -10.3°
Maximum altitude 17:05:01 49° 201° (SSW) 532 -2.9 -10.7°
Drops below altitude 10° 17:08:13 10° 124° (SE) 1,463 -1.3 -11.2°
Enters shadow 17:09:07 - 122° (ESE) 1,827 -0.9 -11.3°
